Погода в Белыничах

Беларусь     53°59′44″N   29°42′31″E
темп.,
°C
ветер,
м/с
пор.,
м/с
влажн.,
%
обл.,
%
осадки,
мм/ч
давл.,
гПа
погр.,
м
20 января, ср
ср2000:00−18ююз229976 0.0 102020
03:00−18ююз239862 0.0 102120
06:00−19ююв339833 0.0 102024
09:00−19ююв349824 0.0 102157
12:00−15ююв489414 0.0 1021252
15:00−12ююв588923 0.0 1019324
18:00−13ююв51192100 0.0 1019303
21:00−11ю61193100 0.0 1017343
21 января, чт
чт2100:00−10ю71394100 0.0 1016380
03:00−9ю61195100 0.4 1014429
06:00−7ю71294100 0.6 1012363
09:00−5ю61195100 1.7 1011410
12:000ююз5119599 0.2 1010411
15:00+1ююз5119699 0.3 1010474
18:00+1ююз51197100 0.1 1010429
21:00+1юз61295100 0.1 1010408
22 января, пт
пт2200:000ююз51195100 0.0 1010416
03:00−2ю4109598 0.0 1010243
06:00−4ю499543 0.0 1008160
09:00+1ю6119670 0.1 1007426
12:00+1ю61299100 0.1 1006455
15:00+1ю511100100 0.1 1005420
18:00+1ю51196100 0.0 1004361
21:00+2ю51196100 0.0 1004330
23 января, сб
сб2300:00+1ю51293100 0.0 1004414
03:00+2ююз5129699 0.2 1004386
06:00+1ююз4998100 0.0 1004278
09:00+1ю3699100 0.4 1006175
12:00+1ю36100100 0.4 1006169
15:00+1ююв37100100 0.6 1006194
18:00+1ююв3699100 0.0 1006162
21:00+1юв5998100 0.0 1005258
24 января, вс
вс2400:00−1юв5109694 0.0 1004272
03:00−1юв7139795 0.0 1003392
06:00+1ююв71398100 0.0 1001574
09:00+2ююв61499100 0.2 999381
12:00+3юв614100100 0.6 997327
15:00+2ююв613100100 1.6 995325
18:00+2ююв410100100 1.5 996219
21:00+2ю33100100 3.9 99583